Probability
0 6 55 65 65 71 81 71 71 65 61 61 65 55 65 65 61 65 65 61 68 74 77 74 71 74 77 81 84 87 81 84 84 84 81 81 81 81 77 71 65 65 74
3 13 55 71 65 68 71 71 71 74 65 65 55 55 61 61 65 68 65 68 74 74 84 68 68 77 81 81 81 87 87 84 84 81 74 68 74 74 71 65 58 65 74
10 16 42 65 68 71 74 81 71 74 71 65 61 65 61 61 65 74 68 58 71 71 68 58 71 77 81 77 77 74 68 74 71 71 65 42 52 61 65 61 71 68 74
10 16 26 65 74 74 71 68 74 74 68 65 55 58 55 65 68 71 74 68 65 68 65 58 71 81 74 71 71 65 61 61 58 48 23 19 32 58 61 68 68 61 58
10 16 23 65 68 68 65 68 71 68 61 55 52 55 61 58 55 58 61 61 61 68 65 55 61 58 65 71 65 65 55 55 48 26 13 23 39 58 52 61 58 61 58
16 16 23 58 61 61 58 58 65 65 61 61 52 52 55 52 48 52 58 58 58 65 68 61 61 58 61 61 65 65 52 48 29 6 6 23 32 52 48 52 55 58 55
16 16 23 48 58 52 58 55 58 52 55 55 58 58 58 52 45 52 58 58 58 58 55 45 55 58 52 55 65 58 55 39 6 0 6 19 29 52 55 58 52 52 45
13 16 23 42 55 55 55 55 61 58 61 61 58 52 48 45 45 52 55 48 55 52 55 48 48 52 61 58 58 55 45 32 6 0 6 13 32 55 52 52 55 58 42
10 16 19 26 29 42 45 48 61 58 58 55 52 52 48 42 45 48 48 52 52 55 55 45 42 45 52 61 55 48 52 32 0 0 0 16 48 48 48 55 55 45 35
6 10 13 16 19 19 29 35 45 58 58 58 48 52 52 42 39 42 48 61 61 58 55 45 45 42 52 58 55 55 48 26 0 0 6 16 48 58 45 45 45 48 45
6 3 3 6 6 13 19 26 26 35 45 45 35 48 39 13 16 23 29 48 52 52 55 52 52 45 45 52 42 61 26 13 3 3 3 23 45 52 48 42 39 45 39
6 6 3 3 3 3 19 13 13 16 19 16 13 16 10 3 6 13 32 39 39 39 39 35 42 32 16 13 23 23 6 6 3 3 3 32 48 48 45 45 39 35 35
6 6 6 6 3 3 3 3 3 3 6 0 0 0 0 0 3 3 3 10 16 23 19 29 23 13 10 10 6 3 3 6 3 3 3 39 48 48 48 52 52 35 35
10 6 6 6 6 0 0 0 0 0 0 0 0 0 0 0 0 3 3 3 3 3 3 3 3 3 3 3 10 6 3 3 6 3 6 32 55 55 48 48 45 45 48
6 6 6 3 3 0 0 0 0 0 0 0 3 0 0 0 0 0 3 3 3 3 3 3 3 3 3 3 6 10 10 10 6 6 3 32 45 58 55 45 39 42 35
3 3 6 3 0 0 0 0 0 0 0 0 0 0 0 0 0 0 3 3 3 3 3 3 3 3 3 3 3 3 10 6 10 10 6 19 39 45 52 52 48 45 39
6 6 6 6 0 0 0 3 0 0 0 0 0 3 0 0 3 3 3 3 0 3 0 0 3 3 3 3 3 3 3 6 13 10 10 3 19 39 42 48 52 55 52
3 3 3 6 3 0 0 0 0 0 0 0 3 3 3 3 3 3 0 0 0 0 0 0 3 3 3 3 3 3 10 10 10 13 10 3 3 16 35 52 58 61 55
0 0 0 0 0 0 0 0 0 0 0 3 3 3 3 3 0 0 0 0 0 3 3 3 3 3 3 3 6 10 10 6 3 6 10 10 3 3 10 19 45 52 48
6 3 0 0 0 0 0 0 0 0 3 3 3 3 3 3 3 3 3 0 3 3 3 3 0 0 6 6 6 6 6 3 3 6 6 10 10 6 6 10 19 29 42
6 0 0 0 0 0 0 0 0 0 3 3 3 6 6 6 3 3 3 0 3 3 3 3 3 3 3 3 3 3 0 0 3 3 3 3 6 6 6 6 10 13 13
3 3 0 0 0 0 0 0 0 0 3 3 3 6 6 6 6 3 0 3 3 3 0 0 0 3 3 3 3 0 0 0 0 0 0 3 3 3 6 6 6 10 10
3 3 6 0 0 0 0 0 0 0 0 3 6 3 3 6 3 6 0 0 0 0 0 0 0 0 0 0 0 0 3 3 0 0 0 0 3 3 3 3 6 6 3
3 3 0 0 0 0 0 0 0 0 0 0 3 3 3 3 6 0 3 0 0 0 3 3 0 0 0 0 0 0 0 0 0 0 0 0 0 0 3 0 3 10 3
6 6 0 0 0 3 0 0 0 0 0 0 3 3 3 6 3 0 3 0 0 0 0 0 0 0 0 0 0 0 0 0 0 0 3 3 0 3 3 3 3 3 6
6 3 0 0 0 3 3 3 3 0 0 0 3 3 3 0 3 0 3 0 0 0 0 0 0 0 0 0 0 0 6 6 3 3 3 3 0 0 0 3 3 3 3
Height
5869 5868 5868 5868 5868 5868 5868 5869 5869 5870 5870 5871 5872 5873 5874 5874 5875 5876 5877 5879 5880 5882 5884 5886 5887 5888 5890 5892 5893 5895 5896 5897 5898 5899 5900 5900 5901 5902 5902 5903 5903 5904 5904
5869 5868 5868 5868 5867 5867 5868 5868 5869 5870 5870 5871 5871 5872 5873 5874 5875 5876 5877 5878 5880 5882 5883 5885 5887 5889 5891 5892 5893 5895 5896 5897 5898 5899 5900 5901 5902 5902 5903 5903 5904 5904 5905
5869 5868 5868 5867 5867 5867 5867 5868 5868 5869 5870 5870 5871 5871 5872 5873 5874 5875 5877 5878 5880 5881 5883 5885 5887 5889 5891 5892 5894 5895 5896 5898 5899 5900 5901 5901 5902 5903 5903 5903 5904 5904 5905
5869 5868 5868 5867 5866 5867 5867 5868 5868 5869 5869 5869 5870 5871 5871 5873 5874 5875 5876 5877 5879 5881 5883 5884 5887 5889 5891 5893 5894 5896 5897 5898 5899 5900 5901 5902 5902 5903 5903 5904 5904 5904 5905
5869 5868 5867 5867 5867 5867 5867 5868 5868 5868 5869 5869 5870 5870 5871 5872 5873 5874 5876 5877 5879 5881 5882 5885 5887 5889 5891 5893 5895 5896 5897 5898 5899 5900 5901 5902 5902 5903 5904 5904 5904 5905 5905
5869 5868 5867 5867 5867 5867 5867 5868 5868 5868 5868 5869 5870 5870 5871 5872 5873 5874 5875 5877 5879 5881 5882 5885 5887 5889 5892 5893 5895 5896 5897 5898 5899 5900 5901 5902 5903 5903 5903 5904 5904 5904 5905
5869 5868 5867 5866 5866 5867 5867 5868 5868 5868 5868 5869 5870 5870 5871 5871 5872 5873 5875 5876 5878 5880 5882 5884 5887 5890 5892 5893 5895 5896 5897 5898 5899 5900 5901 5902 5903 5903 5903 5904 5904 5904 5905
5869 5868 5867 5867 5866 5867 5868 5868 5868 5868 5868 5869 5870 5870 5870 5871 5872 5873 5874 5876 5877 5879 5882 5884 5887 5890 5892 5893 5895 5896 5897 5898 5899 5900 5901 5902 5903 5903 5903 5904 5904 5904 5905
5869 5868 5868 5867 5867 5867 5868 5867 5868 5868 5868 5869 5869 5870 5870 5871 5872 5873 5874 5876 5878 5880 5882 5885 5887 5889 5891 5893 5894 5896 5897 5898 5899 5900 5900 5902 5903 5903 5903 5903 5904 5904 5904
5869 5869 5868 5868 5867 5867 5868 5868 5868 5868 5868 5868 5869 5870 5870 5871 5871 5873 5874 5876 5878 5880 5882 5885 5887 5889 5891 5893 5894 5896 5897 5898 5899 5900 5900 5901 5902 5903 5903 5903 5904 5904 5904
5870 5869 5868 5868 5868 5868 5868 5868 5867 5867 5868 5868 5869 5869 5870 5871 5871 5872 5874 5876 5878 5880 5883 5885 5887 5889 5891 5893 5894 5896 5897 5898 5899 5900 5900 5901 5901 5902 5903 5903 5903 5903 5904
5871 5870 5869 5869 5868 5868 5868 5868 5867 5867 5868 5868 5868 5869 5870 5871 5871 5872 5874 5876 5878 5880 5883 5885 5887 5889 5891 5892 5894 5895 5896 5898 5898 5899 5900 5900 5901 5902 5902 5902 5903 5903 5903
5872 5871 5870 5870 5869 5868 5868 5868 5867 5867 5868 5868 5869 5869 5870 5871 5871 5871 5874 5876 5878 5880 5883 5885 5887 5889 5891 5892 5894 5895 5896 5897 5898 5899 5899 5900 5901 5901 5901 5902 5902 5902 5902
5873 5872 5871 5870 5869 5869 5868 5868 5867 5867 5868 5869 5869 5869 5870 5871 5872 5873 5874 5876 5878 5881 5883 5885 5887 5889 5891 5892 5893 5894 5895 5896 5897 5898 5899 5899 5900 5900 5900 5901 5901 5901 5901
5874 5873 5872 5871 5871 5870 5869 5868 5868 5868 5869 5869 5869 5870 5871 5872 5872 5874 5876 5877 5879 5881 5883 5885 5887 5889 5890 5891 5892 5894 5894 5895 5896 5897 5898 5898 5899 5899 5899 5899 5900 5900 5900
5875 5875 5874 5873 5872 5871 5870 5870 5870 5869 5869 5870 5871 5871 5872 5872 5873 5875 5876 5878 5879 5881 5883 5885 5887 5888 5889 5890 5892 5893 5893 5894 5895 5896 5896 5897 5897 5898 5898 5898 5899 5899 5899
5877 5876 5875 5875 5874 5873 5872 5872 5871 5871 5871 5871 5872 5872 5872 5873 5874 5875 5876 5877 5879 5881 5883 5885 5886 5888 5889 5890 5891 5892 5892 5893 5894 5895 5895 5895 5896 5896 5896 5897 5897 5897 5897
5879 5878 5877 5876 5875 5875 5874 5873 5873 5872 5872 5873 5873 5873 5874 5875 5875 5876 5877 5878 5879 5881 5883 5885 5886 5888 5888 5889 5890 5891 5891 5892 5892 5893 5893 5894 5894 5894 5895 5895 5895 5895 5896
5881 5880 5879 5878 5877 5876 5876 5875 5874 5874 5874 5874 5875 5875 5876 5876 5876 5877 5877 5879 5879 5881 5883 5885 5886 5887 5888 5888 5889 5890 5890 5890 5891 5892 5892 5892 5892 5892 5893 5893 5893 5893 5894
5882 5881 5880 5880 5879 5878 5877 5876 5876 5875 5875 5875 5876 5876 5877 5877 5878 5878 5879 5879 5880 5882 5883 5884 5886 5886 5887 5888 5888 5889 5889 5889 5890 5890 5890 5890 5890 5890 5891 5891 5891 5891 5891
5884 5883 5882 5881 5880 5879 5878 5878 5877 5877 5877 5877 5877 5877 5878 5879 5879 5880 5880 5881 5882 5883 5883 5884 5885 5885 5886 5887 5887 5887 5888 5888 5888 5888 5888 5887 5888 5888 5888 5888 5889 5889 5889
5885 5884 5883 5882 5881 5881 5880 5879 5879 5878 5878 5878 5878 5879 5880 5880 5881 5881 5881 5882 5882 5883 5883 5884 5884 5885 5885 5886 5886 5886 5886 5887 5886 5886 5886 5886 5886 5886 5886 5886 5886 5886 5886
5886 5885 5884 5883 5882 5882 5881 5881 5880 5879 5879 5880 5880 5880 5880 5881 5881 5882 5882 5882 5883 5883 5883 5884 5884 5884 5884 5884 5885 5885 5885 5885 5885 5884 5884 5884 5884 5884 5884 5884 5884 5884 5884
5886 5885 5885 5884 5883 5883 5882 5882 5882 5882 5882 5881 5881 5881 5881 5882 5882 5882 5883 5883 5883 5883 5883 5883 5883 5884 5883 5883 5884 5884 5884 5883 5883 5883 5883 5882 5882 5882 5882 5882 5882 5882 5881
5886 5886 5885 5884 5883 5883 5883 5883 5883 5883 5883 5882 5882 5882 5883 5883 5883 5883 5883 5883 5883 5883 5883 5883 5883 5883 5883 5882 5882 5882 5882 5882 5881 5881 5881 5880 5880 5880 5880 5880 5879 5879 5879
5885 5885 5885 5884 5883 5883 5883 5883 5883 5883 5883 5883 5883 5883 5883 5883 5883 5883 5883 5882 5882 5882 5882 5882 5882 5882 5882 5881 5881 5881 5880 5880 5880 5879 5879 5878 5878 5878 5878 5877 5877 5876 5876
Wind_Speed
3 2 1 1 1 1 2 4 4 4 4 4 4 5 5 6 7 8 8 8 9 9 9 8 7 8 8 8 8 8 7 6 6 6 4 3 3 2 2 2 2 2 2
3 2 2 1 1 1 2 3 4 4 3 3 4 4 5 6 6 8 9 8 8 9 9 9 8 8 8 8 8 8 7 6 5 5 4 4 3 2 2 2 2 2 2
3 2 2 1 1 1 2 3 4 3 3 3 3 5 6 6 6 7 8 8 8 10 9 9 8 8 8 8 8 7 7 6 5 5 5 4 3 3 2 3 3 2 2
3 2 2 2 3 3 3 3 3 3 3 2 3 6 6 6 7 7 7 8 9 9 9 9 9 8 8 8 7 7 7 6 5 5 4 4 4 3 3 3 2 2 2
3 2 3 3 3 4 4 3 2 2 3 3 4 5 6 6 6 7 7 8 9 9 10 10 10 9 8 8 7 6 7 6 5 4 4 4 4 3 3 3 2 2 3
3 3 3 3 3 3 4 3 3 3 3 4 4 5 6 7 7 7 7 9 10 10 10 10 10 9 9 8 7 6 6 5 5 5 4 4 3 3 3 3 2 2 3
3 3 3 3 3 3 4 3 3 4 4 4 4 5 5 6 8 8 9 9 10 10 10 11 10 10 9 8 7 6 5 5 5 5 4 4 3 3 2 3 2 2 3
4 4 4 4 4 3 3 3 3 3 4 3 3 4 5 6 7 8 10 10 10 10 10 11 10 10 8 8 7 7 6 5 5 4 4 3 3 3 3 2 2 2 3
5 4 4 4 3 3 3 2 2 3 4 3 3 4 5 6 7 9 9 10 10 10 11 11 10 10 8 7 7 6 6 5 5 4 4 4 3 4 3 3 3 3 3
6 5 4 4 3 3 2 2 2 3 3 4 4 4 4 5 7 8 9 10 10 10 11 10 10 9 9 8 7 7 6 5 5 4 4 4 4 4 3 3 3 3 3
6 5 5 4 4 3 2 2 2 2 4 5 4 4 4 5 6 7 8 9 9 10 10 10 10 10 9 8 7 6 6 5 5 4 4 4 4 4 4 3 4 4 4
8 6 5 5 5 4 4 3 2 3 4 5 4 4 4 4 6 6 7 9 9 9 10 10 10 10 9 8 8 7 6 7 6 5 5 5 5 5 4 4 4 4 4
9 8 7 6 5 5 4 4 3 4 4 4 4 4 5 5 5 6 7 8 9 9 9 9 9 9 8 8 8 7 7 8 6 6 6 5 5 5 5 5 5 6 5
9 8 7 7 7 6 5 4 4 4 4 4 5 4 5 6 6 6 7 7 8 9 9 9 8 8 8 7 8 8 8 8 7 6 6 6 6 6 6 6 6 6 6
9 8 7 7 7 6 5 5 5 4 5 6 6 5 5 6 6 7 7 8 8 7 8 8 8 8 7 8 8 8 8 7 7 7 7 7 7 7 7 8 7 7 7
9 8 8 8 8 7 7 6 6 7 6 6 6 5 5 6 7 7 7 7 7 7 7 7 7 7 7 7 7 8 7 7 7 7 7 7 7 8 8 9 8 8 8
9 8 8 8 8 8 7 6 6 6 6 5 5 4 5 5 6 7 6 6 7 7 7 6 7 7 7 7 7 7 7 8 8 8 8 7 8 8 9 9 8 9 9
10 9 8 8 8 8 8 6 6 6 5 5 5 4 5 4 4 4 5 6 7 7 6 6 7 6 6 7 7 7 8 9 9 9 9 9 9 8 9 9 9 9 9
9 9 8 7 7 7 8 7 6 6 5 5 5 5 5 4 3 3 5 6 6 6 6 6 5 6 6 6 6 6 7 7 8 9 10 10 9 9 9 9 9 9 9
9 8 7 7 6 6 7 7 7 6 6 6 5 5 5 4 4 3 4 5 5 6 6 6 6 6 5 6 6 6 7 8 9 10 10 10 9 9 9 9 9 10 10
8 7 7 6 6 6 6 6 6 6 6 6 6 5 5 4 4 4 4 3 3 4 5 5 5 5 5 6 6 6 6 7 8 10 10 9 9 9 9 9 10 10 11
7 6 6 6 5 5 6 6 5 5 5 5 6 5 4 3 3 3 2 2 2 3 4 4 4 3 4 5 5 5 5 6 6 7 8 10 10 9 9 9 9 10 10
5 5 5 5 4 5 5 5 5 4 4 4 4 4 3 3 3 2 1 1 2 3 3 3 4 4 4 4 4 5 5 6 7 7 7 8 8 8 8 9 9 9 10
4 3 3 3 3 3 3 3 3 3 3 3 4 4 3 3 2 1 1 1 1 2 3 3 3 3 4 5 5 6 6 7 7 8 8 8 9 9 9 9 10 11 11
3 3 2 2 2 1 1 2 1 1 2 2 2 3 2 2 1 0 1 1 1 2 3 3 4 5 5 5 6 6 7 7 7 7 8 9 9 10 10 10 11 11 11
3 3 3 2 2 1 1 0 1 1 1 1 0 1 1 0 0 1 2 3 3 3 4 5 5 6 7 7 7 7 7 7 7 7 8 9 9 10 11 11 12 11 11
Wind_Direction
44 48 64 68 91 99 116 130 138 140 148 158 160 164 165 169 170 173 175 175 174 174 168 162 167 173 172 168 172 175 177 178 182 171 168 164 160 158 168 190 187 172 143
49 56 80 80 71 86 114 126 130 141 147 154 172 177 173 170 174 171 173 174 174 173 171 167 169 174 174 179 181 180 180 182 181 177 177 178 176 178 183 194 192 180 168
58 72 77 71 73 98 114 124 120 126 144 162 179 176 171 176 182 179 177 179 176 175 175 174 172 177 178 181 186 186 184 185 185 185 192 195 194 196 200 201 206 213 198
58 70 85 86 88 107 123 127 128 130 138 158 169 174 171 173 184 184 181 179 177 179 180 179 175 178 182 183 187 186 189 191 192 197 201 199 199 198 199 208 222 222 216
54 65 82 92 97 107 114 139 136 134 134 148 157 163 171 176 182 187 186 180 179 180 183 184 180 179 179 184 192 192 195 200 201 206 206 205 204 205 214 223 235 234 225
58 76 87 99 114 121 120 130 127 133 141 157 155 164 172 179 181 184 188 184 184 181 180 183 181 181 182 185 195 203 201 195 201 203 198 207 204 205 220 228 236 247 234
70 89 102 116 122 125 123 125 124 141 148 161 165 165 172 183 182 186 187 185 187 185 182 182 180 181 184 187 194 198 198 201 204 203 201 201 206 215 227 229 226 229 228
76 101 107 110 113 116 125 135 139 153 161 170 170 169 177 184 183 184 184 184 185 184 182 182 179 183 185 186 192 198 201 204 206 203 200 201 206 215 227 235 229 218 222
78 93 103 100 104 116 129 141 150 169 168 171 175 170 176 180 184 186 186 185 183 179 180 182 179 181 183 187 191 197 201 204 210 217 206 206 210 218 223 222 229 229 230
75 82 88 87 93 101 105 131 153 167 172 169 178 171 175 184 186 188 191 190 186 186 186 184 182 182 186 186 188 194 202 206 215 209 203 212 220 222 231 235 236 237 234
67 71 72 81 88 95 92 117 141 159 166 165 169 172 176 181 184 184 192 190 186 185 186 185 187 187 187 186 190 195 204 207 218 203 205 213 225 233 233 237 240 241 238
58 62 67 79 85 91 100 113 135 151 160 164 165 164 171 175 171 168 175 180 181 184 184 184 186 189 192 194 199 207 209 212 212 208 214 215 229 244 238 238 240 245 246
58 61 67 71 81 86 93 102 119 145 154 155 154 156 155 156 153 152 158 169 175 179 182 183 186 189 196 203 205 208 214 217 212 221 225 224 232 241 244 248 249 249 250
59 63 68 68 75 85 97 105 112 129 140 141 140 151 150 148 151 150 152 162 171 175 178 182 188 191 198 206 208 214 219 218 220 229 233 238 242 242 247 250 249 250 251
59 64 67 69 72 73 83 99 104 119 133 133 134 134 137 148 158 159 161 158 168 175 179 185 190 194 201 211 212 219 224 226 238 234 238 243 244 244 250 249 245 251 252
58 65 68 69 70 70 73 88 101 111 121 133 131 126 137 148 156 161 158 157 163 174 181 188 196 198 207 215 217 224 229 235 242 237 240 239 245 248 249 248 252 256 253
58 64 69 71 71 70 71 80 97 110 108 122 123 119 135 149 156 161 159 160 164 170 181 187 198 206 211 217 221 226 234 238 240 241 237 241 250 253 254 252 256 255 253
57 64 70 71 72 73 75 85 101 109 111 117 114 115 127 135 152 165 169 166 170 175 181 184 194 209 216 220 226 232 240 240 240 242 244 248 253 255 255 252 255 256 255
56 63 68 68 72 73 77 88 94 102 108 114 107 104 107 114 131 132 155 169 177 181 185 190 198 213 221 225 231 234 237 235 240 247 251 252 252 254 254 251 253 254 257
51 60 66 65 65 69 78 85 84 92 102 107 104 104 106 110 108 117 147 165 173 179 187 196 203 219 228 233 234 233 235 238 244 248 253 250 250 252 251 251 252 255 258
46 53 62 66 67 69 71 82 90 95 105 113 103 100 99 102 106 120 131 138 171 187 196 206 218 232 237 242 243 248 244 247 250 250 253 250 247 249 253 256 260 258 259
39 45 54 62 66 67 70 81 96 98 103 108 110 107 109 106 108 111 125 156 189 202 210 230 236 238 245 242 245 249 252 254 253 253 254 252 252 258 259 262 264 263 263
30 39 46 56 65 69 69 71 80 95 99 97 109 112 112 112 98 100 116 174 207 212 230 243 243 246 251 249 248 255 261 257 256 256 255 254 255 261 263 270 273 271 267
17 29 42 48 57 67 70 77 82 92 90 88 92 101 107 111 98 90 117 170 230 234 245 259 261 261 258 258 256 259 263 259 259 262 265 259 259 263 267 272 271 268 269
349 350 5 15 25 48 61 63 69 85 99 103 89 92 94 97 110 153 285 285 261 271 273 274 276 271 270 270 267 266 266 266 263 266 265 263 262 264 270 271 270 268 271
321 320 321 332 334 299 275 277 290 288 248 231 150 84 61 84 270 292 292 284 276 284 284 280 281 277 278 276 270 267 265 265 270 276 271 266 263 263 266 267 268 271 272